Medicine Lodge, KS

5:10 AM CDT on July 28, 2017 (GMT -0500)
Medicine Lodge

Weather History for KP28 - April, 2014

Change the Weather History Date:

Wednesday, April 30, 2014

  Actual Average Record
Temperature  
Mean Temperature 50 °F 61 °F  
Max Temperature 60 °F 73 °F 95 °F (1959)
Min Temperature 39 °F 49 °F 26 °F (1908)
Degree Days  
Heating Degree Days 15 5  
Month to date heating degree days 264 288  
Since 1 July heating degree days 4939 4385  
Moisture  
Dew Point 27 °F    
Average Humidity 47    
Maximum Humidity 70    
Minimum Humidity 24    
Precipitation  
Precipitation 0.00 in 0.10 in 1.91 in (1985)
Month to date precipitation 0.63 2.43  
Year to date precipitation 2.07 6.44  
Snow  
Snow 0.00 in 0.00 in - ()
Month to date snowfall 0.0 0.0  
Since 1 July snowfall 27.0 8.5  
Snow Depth 0.00 in    
Sea Level Pressure  
Sea Level Pressure 30.10 in    
Wind  
Wind Speed 15 mph (NNW)    
Max Wind Speed 28 mph    
Max Gust Speed 36 mph    
T = Trace of Precipitation, MM = Missing Value Source: NWS Daily Summary

Daily Weather History Graph

Daily Weather History Graph

Search for Another Location

Airport or City:

Trip Planner

Search our weather history database for the weather conditions in past years. The results will help you decide how hot, cold, wet, or windy it might be!

Date:

Astronomy

Apr. 30, 2014 Rise Set
Actual Time 6:40 AM CDT 8:23 PM CDT
Civil Twilight 6:12 AM CDT 8:51 PM CDT
Nautical Twilight 5:38 AM CDT 9:24 PM CDT
Astronomical Twilight 5:03 AM CDT 10:00 PM CDT
Moon 7:43 AM CDT (4/30) 10:02 PM CDT (4/30)
Length of Visible Light 14h 38m
Length of Day
13h 42m
New Moon, 2% of the Moon is Illuminated
Apr 30
New Moon
May 6
First Quarter
May 14
Full
May 21
Last Quarter
May 28
New

Hourly Weather History & Observations

Time (CDT) Temp. Windchill Dew Point Humidity Pressure Visibility Wind Dir Wind Speed Gust Speed Precip Events Conditions
12:56 AM 43.0 °F 36.4 °F 33.1 °F 68% 30.05 in - NNW 12.7 mph 25.3 mph N/A   Unknown
1:56 AM 44.1 °F 37.4 °F 33.1 °F 65% 30.06 in - NNW 13.8 mph 25.3 mph N/A   Unknown
2:56 AM 43.0 °F 35.7 °F 33.1 °F 68% 30.06 in - NNW 15.0 mph 23.0 mph N/A   Unknown
3:56 AM 42.1 °F 34.9 °F 32.0 °F 67% 30.08 in - NNW 13.8 mph - N/A   Unknown
4:56 AM 41.0 °F 34.3 °F 30.9 °F 67% 30.09 in - NNW 11.5 mph - N/A   Unknown
5:56 AM 41.0 °F 33.5 °F 30.9 °F 67% 30.10 in - NNW 13.8 mph 23.0 mph N/A   Unknown
6:56 AM 39.0 °F 32.3 °F 30.9 °F 73% 30.12 in - NW 10.4 mph - N/A   Unknown
7:56 AM 43.0 °F 35.4 °F 30.9 °F 62% 30.14 in - NNW 16.1 mph 25.3 mph N/A   Unknown
8:56 AM 51.1 °F - 32.0 °F 48% 30.14 in - NNW 18.4 mph 26.5 mph N/A   Unknown
9:56 AM 52.0 °F - 30.0 °F 43% 30.14 in - NNW 21.9 mph 28.8 mph N/A   Unknown
10:56 AM 54.0 °F - 30.0 °F 40% 30.14 in - NNW 19.6 mph 27.6 mph N/A   Unknown
11:56 AM 53.1 °F - 25.0 °F 34% 30.14 in - NNW 25.3 mph 32.2 mph N/A   Unknown
12:56 PM 53.1 °F - 21.9 °F 30% 30.13 in - NW 20.7 mph 29.9 mph N/A   Unknown
1:56 PM 59.0 °F - 23.0 °F 25% 30.10 in - NW 21.9 mph 31.1 mph N/A   Unknown
2:56 PM 55.9 °F - 24.1 °F 29% 30.11 in - NNW 19.6 mph 27.6 mph N/A   Unknown
3:56 PM 57.9 °F - 23.0 °F 26% 30.09 in - NNW 21.9 mph 29.9 mph N/A   Unknown
4:56 PM 57.0 °F - 21.9 °F 26% 30.08 in - NNW 18.4 mph 25.3 mph N/A   Unknown
5:56 PM 57.0 °F - 21.0 °F 25% 30.07 in - NNW 20.7 mph 29.9 mph N/A   Unknown
6:56 PM 55.9 °F - 21.9 °F 27% 30.08 in - NNW 19.6 mph 24.2 mph N/A   Unknown
7:56 PM 54.0 °F - 21.9 °F 29% 30.08 in - NNW 15.0 mph 21.9 mph N/A   Unknown
8:56 PM 48.9 °F - 23.0 °F 36% 30.09 in - NNW 4.6 mph - N/A   Unknown
9:56 PM 43.0 °F 39.5 °F 23.0 °F 45% 30.12 in - North 5.8 mph - N/A   Unknown
10:56 PM 43.0 °F 40.3 °F 24.1 °F 47% 30.13 in - North 4.6 mph - N/A   Unknown
11:56 PM 41.0 °F 39.0 °F 25.0 °F 53% 30.14 in - WNW 3.5 mph - N/A   Unknown